Flag for United Kingdom Weather past 2 weeks in Watford, England, United Kingdom

Now
75 °F

Scattered clouds.


Feels Like: 78 °F
Forecast: 59 / 74 °F
Wind: 10 mph from Southwest

Location: Northolt

Current Time: Jul 31, 2014 at 2:55:42 PM

Latest Report: Jul 31, 2014 at 1:50 PM


Visibility: N/A

Pressure: 29.92 "Hg

Humidity: 47%

Dew point: 54 °F

Location of WatfordLocation

Historic Weather in Watford — Graph

°F

Watford temperature yesterday

Maximum temperature yesterday: 77 °F (at 4:50 PM)
Minimum temperature yesterday: 55 °F (at 4:50 AM)
Average temperature yesterday: 67 °F

Past Weeks' High & Low Weather Summary

 TemperatureHumidityPressure
High86 °F (Jul 18, 1:50 PM)94% (Jul 18, 4:50 AM)30.21 "Hg (Jul 18, 4:50 AM)
Low55 °F (Jul 30, 4:50 AM)30% (Jul 24, 7:50 PM)29.71 "Hg (Jul 19, 5:50 PM)
Average70 °F66%30.00 "Hg
* Reported Jul 16 1:50 PM — Jul 31 1:50 PM, Watford, Weather by CustomWeather, © 2014

Note: Actual official high and low records may vary slightly from our data, if they occured in-between our weather recording intervals... More about our weather records

Advertising

Watford weather history for previous 24 hours

 ConditionsComfort  
Time TempWeatherWind HumidityBarometerVisibility
1:50 PM
Jul 31
75 °FScattered clouds.10 mph47%29.92 "HgN/A
12:50 PM75 °FScattered clouds.5 mph50%29.92 "HgN/A
11:50 AM72 °FScattered clouds.9 mph57%29.95 "HgN/A
10:50 AM70 °FScattered clouds.9 mph60%29.95 "HgN/A
9:50 AM68 °FPassing clouds.10 mph64%29.95 "HgN/A
8:50 AM64 °FScattered clouds.9 mph73%29.98 "HgN/A
7:50 AM61 °FSunny.5 mph83%29.98 "Hg10 mi
6:50 AM59 °FSunny.2 mph88%29.98 "Hg10 mi
5:50 AM57 °FPassing clouds.1 mph94%29.98 "HgN/A
4:50 AM57 °FClear.2 mph94%29.98 "HgN/A
3:50 AM57 °FClear.3 mph94%29.98 "HgN/A
2:50 AM59 °FClear.3 mph88%29.98 "HgN/A
1:50 AM61 °FClear.6 mph88%29.98 "HgN/A
12:50 AM63 °FClear.6 mph83%29.98 "HgN/A
11:50 PM
Jul 30
64 °FClear.7 mph78%29.98 "HgN/A
10:50 PM68 °FClear.8 mph64%29.98 "Hg10 mi
9:50 PM68 °FClear.5 mph64%29.98 "Hg10 mi
8:50 PM72 °FSunny.5 mph57%29.98 "Hg10 mi
7:50 PM75 °FSunny.6 mph47%29.95 "Hg10 mi
6:50 PM77 °FSunny.8 mph44%29.95 "Hg10 mi
5:50 PM77 °FSunny.10 mph44%29.98 "Hg10 mi
4:50 PM77 °FSunny.7 mph42%29.98 "Hg10 mi
3:50 PM75 °FSunny.6 mph44%29.98 "Hg10 mi
2:50 PM75 °FPassing clouds.8 mph44%29.98 "HgN/A
Weather by CustomWeather, © 2014

See weather overviewHow to use our weather pages